Regional Weather Roundup
Issued by NWS

Home | Current Version | Previous Version | Text Only | Print | Product List | Glossary On
Versions: 1 2 3 4 5 6 7 8 9 10 11 12 13 14 15 16 17 18 19 20 21 22 23 24 25 26 27 28 29 30 31 32 33 34 35 36 37 38 39 40 41 42 43 44 45 46 47 48 49 50
000
ASUS43 KDTX 221210
RWRMI
MICHIGAN HOURLY REGIONAL WEATHER ROUNDUP
NATIONAL WEATHER SERVICE DETROIT/PONTIAC MI
700 AM EST MON DEC 22 2014

NOTE: "FAIR" INDICATES FEW OR NO CLOUDS BELOW 12,000 FEET WITH NO
SIGNIFICANT WEATHER AND/OR OBSTRUCTION TO VISIBILITY.

MIZ047>049-052>055-059>063-066>070-074>076-081>083-221300-
SOUTHEAST LOWER MICHIGAN

CITY           SKY/WX    TMP DP  RH WIND       PRES   REMARKS
ADRIAN         CLEAR     24  22  91 E6        30.08F FOG     WCI  17
6HR MIN TEMP:  23; 6HR MAX TEMP:  26;

ALMA           CLOUDY    26  25  96 SE6       30.08F FOG     WCI  20
6HR MIN TEMP:  24; 6HR MAX TEMP:  28;

ANN ARBOR      CLEAR     24  22  91 E3        30.09S FOG
BAD AXE        MOCLDY    28  25  89 S6        30.13S WCI  22
6HR MIN TEMP:  27; 6HR MAX TEMP:  30;

CARO           CLOUDY    27  23  85 SE6       30.12S WCI  20
DETROIT CITY   PTCLDY    25  20  81 E3        30.11F HAZE
6HR MIN TEMP:  25; 6HR MAX TEMP:  30;

DETROIT        CLOUDY    27  23  85 NE3       30.11F FOG
6HR MIN TEMP:  26; 6HR MAX TEMP:  28;

FLINT          MOCLDY    26  21  81 E5        30.09F WCI  20
6HR MIN TEMP:  26; 6HR MAX TEMP:  31;

GROSSE ILE     CLEAR     28  25  86 E3        30.09F FOG
HILLSDALE      CLEAR     25  23  92 E7        30.03F FOG     WCI  17
6HR MIN TEMP:  24; 6HR MAX TEMP:  27;

HOWELL         PTCLDY    25  23  94 SE7       30.07S FOG     WCI  17
6HR MIN TEMP:  25; 6HR MAX TEMP:  27;


CITY           SKY/WX    TMP DP  RH WIND       PRES   REMARKS
JACKSON        PTCLDY    24  22  91 SE6       30.06S FOG     WCI  17
6HR MIN TEMP:  24; 6HR MAX TEMP:  27;

LAMBERTVILLE   CLEAR     25  21  86 E3        30.09S FOG
LANSING        MOCLDY    27  24  89 SE8       30.07F FOG     WCI  19
6HR MIN TEMP:  27; 6HR MAX TEMP:  28;

LAPEER         FAIR      25  23  92 CALM      30.11F
MASON          PTCLDY    27  24  89 SE7       30.06F FOG     WCI  19
MONROE         CLEAR     28  27  93 CALM      30.08F
MT. CLEMENS    MOCLDY    28  27  99 E7        30.10F WCI  20
6HR MIN TEMP:  28; 6HR MAX TEMP:  31;

PONTIAC        CLOUDY    26  22  84 E3        30.08F
6HR MIN TEMP:  25; 6HR MAX TEMP:  27;

PORT HOPE        N/A     30  24  78 S6        30.13R WCI  24
6HR MIN TEMP:  29; 6HR MAX TEMP:  31;

PORT HURON     CLOUDY    30  25  80 CALM      30.13F
TRI CITIES     CLOUDY    27  22  81 SE6       30.11F WCI  20
6HR MIN TEMP:  27; 6HR MAX TEMP:  32;

TROY           PTCLDY    29  24  82 E6        30.11F WCI  23
SAGINAW HB     CLOUDY    27  27 100 E3        30.11S
$$
MIZ043>046-050>051-056>058-064>065-071>073-077>080-221300-
SOUTHWEST LOWER MICHIGAN

CITY           SKY/WX    TMP DP  RH WIND       PRES   REMARKS
BATTLE CREEK   MOCLDY    27  21  78 E7        30.03F WCI  19
6HR MIN TEMP:  27; 6HR MAX TEMP:  29;

BENTON HARBOR  PTCLDY    27  24  89 SE12      30.00S FOG     WCI  17
6HR MIN TEMP:  27; 6HR MAX TEMP:  30;

BIG RAPIDS     CLOUDY    28  26  92 SE7       30.03S FOG     WCI  21
6HR MIN TEMP:  28; 6HR MAX TEMP:  29;

COLDWATER      MOCLDY    27  23  85 SE6       30.03F WCI  21
6HR MIN TEMP:  26; 6HR MAX TEMP:  28;

FREMONT        FAIR      29  24  80 SE7       30.02S WCI  22
HOLLAND        PTCLDY    30  23  75 SE10      30.02S WCI  21
6HR MIN TEMP:  30; 6HR MAX TEMP:  33;

GRAND RAPIDS   MOCLDY    26  22  84 E8        30.04F FOG     WCI  18
6HR MIN TEMP:  26; 6HR MAX TEMP:  30;

IONIA          FAIR      26  24  90 E7        30.04S FOG     WCI  19
KALAMAZOO      PTCLDY    28  22  78 SE6       30.03F HAZE    WCI  22
6HR MIN TEMP:  27; 6HR MAX TEMP:  29;

LUDINGTON      MOCLDY    32  26  77 SE13      30.00S WCI  22
6HR MIN TEMP:  32; 6HR MAX TEMP:  33;

MARSHALL       PTCLDY    24  21  89 E6        30.04S FOG     WCI  17
MOUNT PLEASANT CLOUDY    27  25  92 E5        30.07S FOG     WCI  21
6HR MIN TEMP:  27; 6HR MAX TEMP:  28;

MUSKEGON       MOCLDY    30  23  75 SE9       30.02S WCI  22
6HR MIN TEMP:  29; 6HR MAX TEMP:  33;

SOUTH HAVEN    PTCLDY    29  24  82 SE7       30.01S HAZE    WCI  22
$$
MIZ016>042-221300-
NORTHERN LOWER MICHIGAN

CITY           SKY/WX    TMP DP  RH WIND       PRES   REMARKS
ALPENA         CLOUDY    29  25  85 SE9       30.12S WCI  20
6HR MIN TEMP:  28; 6HR MAX TEMP:  31;

BEAVER ISLAND  CLOUDY    32  29  87 SE7       30.02S WCI  26
6HR MIN TEMP:  32; 6HR MAX TEMP:  33;

BELLAIRE       CLOUDY    32  25  77 S6        30.05S WCI  26
6HR MIN TEMP:  31; 6HR MAX TEMP:  33;

CADILLAC       CLOUDY    27  24  87 SE8       30.01S FOG     WCI  19
CHARLEVOIX     CLOUDY    30  26  83 SE7       30.07R WCI  23
6HR MIN TEMP:  30; 6HR MAX TEMP:  32;

FRANKFORT      CLOUDY    31  27  82 S9        30.00F WCI  23
GAYLORD        CLOUDY    26  23  88 S13       30.03S FOG     WCI  15
6HR MIN TEMP:  26; 6HR MAX TEMP:  28;

GRAYLING       CLOUDY    28  26  91 SE6       30.06R FOG     WCI  22
6HR MIN TEMP:  26; 6HR MAX TEMP:  29;

HARBOR SPRINGS CLOUDY    29  25  83 E6        30.05S WCI  23
HOUGHTON LAKE  CLOUDY    26  22  84 SE6       30.06S WCI  19
6HR MIN TEMP:  24; 6HR MAX TEMP:  27;

MANISTEE       MOCLDY    30  23  74 SE7       30.01S WCI  23
OSCODA         CLOUDY    29  26  88 S3        30.13S
PELLSTON       CLOUDY    29  25  85 SE9       30.06S WCI  20
6HR MIN TEMP:  29; 6HR MAX TEMP:  32;

ROGERS CITY    CLOUDY    29  27  92 S9        30.11S WCI  21
TRAVERSE CITY  CLOUDY    31  25  78 SE8       30.02S WCI  23
6HR MIN TEMP:  31; 6HR MAX TEMP:  33;

$$
MIZ007>008-015-221300-
EASTERN UPPER MICHIGAN

CITY           SKY/WX    TMP DP  RH WIND       PRES   REMARKS
KINROSS        CLOUDY    30  28  93 SE12      30.05S WCI  21
6HR MIN TEMP:  30; 6HR MAX TEMP:  32;

MACKINAC ISLAN CLOUDY    31  26  82 SE12G20   30.05S WCI  21
6HR MIN TEMP:  31; 6HR MAX TEMP:  32;

NEWBERRY       CLOUDY    30  28  93 SE10      30.00S WCI  21
S. S. MARIE    LGT SNOW  31  28  89 SE9       30.04F FOG     WCI  23
6HR MIN TEMP:  31; 6HR MAX TEMP:  32; 6HR PCP:  0.03;

MUNISING         N/A     36  32  85 S9        29.94S WCI  29
6HR MIN TEMP:  36; 6HR MAX TEMP:  37;

$$
MIZ004>006-011>014-085-221300-
CENTRAL UPPER MICHIGAN

CITY           SKY/WX    TMP DP  RH WIND       PRES   REMARKS
MANISTIQUE     CLOUDY    34  33  94 S13       29.98S FOG     WCI  25
6HR MIN TEMP:  33; 6HR MAX TEMP:  34;

ESCANABA       CLOUDY    36  30  80 S14G20    29.94S WCI  27
6HR MIN TEMP:  36; 6HR MAX TEMP:  36;

MENOMINEE      CLOUDY    36  30  80 S8        29.93R WCI  29
6HR MIN TEMP:  36; 6HR MAX TEMP:  36;

SAWYER-GWINN   CLOUDY    34  32  93 S14       29.89S FOG     WCI  24
$$
MIZ001>003-009>011-084-221300-
WESTERN UPPER MICHIGAN

CITY           SKY/WX    TMP DP  RH WIND       PRES   REMARKS
IRON MOUNTAIN  CLOUDY    33  30  88 SE7       29.88S FOG     WCI  27
6HR MIN TEMP:  33; 6HR MAX TEMP:  33; 6HR PCP: TRACE;

HOUGHTON       LGT SNOW  32  31  96 S8        29.83R FOG     WCI  25
6HR MIN TEMP:  32; 6HR MAX TEMP:  32; 6HR PCP:  0.01;

COPPER HARBOR    N/A     35  33  92 SW13G21   29.85S WCI  26
6HR MIN TEMP:  34; 6HR MAX TEMP:  36; 6HR PCP:  0.05;

IRONWOOD       CLOUDY    36  34  93 SE7       29.75S WCI  30
6HR MIN TEMP:  34; 6HR MAX TEMP:  36;

$$

ABBREVIATIONS USED IN REMARKS
   TC - TEMPERATURE IN CELSIUS
  WCI - WIND CHILL INDEX
   HX - HEAT INDEX
  VSB - VISIBILITY



USA.gov is the U.S. government's official web portal to all federal, state and local government web resources and services.